Location: Casteau
(50.5142°N, 4.0161°E)
Time: 14:38:09
(UTC+00:00)

Explorer 11/Cluster Stage 4 - Pass Details

Date: 06 August 2021
Orbit: 467 x 1256 km, 28.8° (Epoch: 23 September)

Event Time Altitude Azimuth Distance (km) Brightness Sun altitude
Rises 07:07:24 0° 213° (SSW) 3,783 9.8 25.0°
Reaches altitude 10° 07:12:33 10° 182° (S) 3,013 9.7 25.8°
Maximum altitude 07:14:36 11° 166° (SSE) 2,978 9.9 26.2°
Drops below altitude 10° 07:16:42 10° 150° (SSE) 3,123 10.2 26.5°
Sets 07:22:23 0° 120° (ESE) 4,179 11.3 27.4°
